Regional Weather Roundup
Issued by NWS

Home | Current Version | Previous Version | Graphics & Text | Print | Product List | Glossary On
Versions: 1 2 3 4 5 6 7 8 9 10 11 12 13 14 15 16 17 18 19 20 21 22 23 24 25 26 27 28 29 30 31 32 33 34 35 36 37 38 39 40 41 42 43 44 45 46 47 48 49 50
000
ASUS43 KMKX 271700
RWRWI

WISCONSIN REGIONAL WEATHER ROUNDUP
NATIONAL WEATHER SERVICE MILWAUKEE/SULLIVAN WI
1200 PM CDT WED JUL 27 2016

NOTE: "FAIR" INDICATES FEW OR NO CLOUDS BELOW 12,000 FEET WITH NO
SIGNIFICANT WEATHER AND/OR OBSTRUCTIONS TO VISIBILITY.

WIZ001-002-006>008-014>016-023>028-271800-
NORTHWEST WISCONSIN

CITY           SKY/WX    TMP DP  RH WIND       PRES   REMARKS
SUPERIOR ARPT  CLOUDY    64  60  87 NE9       30.03R
ASHLAND        CLOUDY    67  63  87 NE10      30.01S
HAYWARD        CLOUDY    70  66  87 CALM      30.01F
SIREN          CLOUDY    72  68  88 E5        29.96F
CUMBERLAND     CLOUDY    72  63  73 SE7       29.99F
RICE LAKE      CLOUDY    75  65  70 E6        30.01F
CHETEK         CLOUDY    76  66  71 MISG      29.99F
LADYSMITH      CLOUDY    71  66  84 CALM      30.03S
EAU CLAIRE     NOT AVBL
MENOMONIE      CLOUDY    81  71  71 E7        29.99R HX  84
NEW RICHMOND   PTSUNNY   80  67  65 SE6       29.97S HX  82
OSCEOLA        CLOUDY    77  70  80 SE8       29.98F
$$

WIZ003>005-009-010-017-018-271800-
NORTH CENTRAL WISCONSIN

CITY           SKY/WX    TMP DP  RH WIND       PRES   REMARKS
MANITOWISH WTR CLOUDY    69  69  98 CALM      30.03R
ARBOR VITAE      N/A    N/A N/A N/A W3        30.04R
WOODRUFF         N/A    N/A N/A N/A W3        30.04R
RHINELANDER    CLOUDY    70  64  81 E3        30.03F
EAGLE RIVER    CLOUDY    69  67  92 E10       30.01F
LAND O LAKES   LGT RAIN  67  65  94 E3        30.04F
PHILLIPS       CLOUDY    68  65  93 CALM      30.02S
TOMAHAWK       CLOUDY    68  64  87 CALM      30.04S
MEDFORD        CLOUDY    68  68  99 CALM      30.02F
MERRILL        CLOUDY    68  67  94 SE3       30.03F
$$

WIZ029-030-035-036-043>047-271800-
CENTRAL WISCONSIN

CITY           SKY/WX    TMP DP  RH WIND       PRES   REMARKS
WAUSAU         CLOUDY    71  66  84 SE9       30.00F
MOSINEE        MOSUNNY   73  68  83 E7        30.03F
MARSHFIELD     MOSUNNY   78  65  63 SE6       30.02F HX  80
STEVENS POINT  CLOUDY    73  66  80 E9        30.03F
WAUPACA        LGT RAIN  68  67  95 NE9G23    30.04R
WAUTOMA        PTSUNNY   74  64  71 N21       30.02R
WISC RAPIDS    CLOUDY    79  64  60 E9        30.03F HX  81
CAMP DOUGLAS   NOT AVBL
$$

WIZ011>013-019>022-031-037>040-048>050-271800-
NORTHEAST WISCONSIN

CITY           SKY/WX    TMP DP  RH WIND       PRES   REMARKS
ANTIGO         CLOUDY    67  65  92 CALM      30.04S
SHAWANO        RAIN      72  65  80 CALM      30.04F
OCONTO         CLOUDY    70  70  99 NW3       30.03S
STURGEON BAY   CLOUDY    73  65  75 W9        30.04R
GREEN BAY      MOSUNNY   80  67  64 N13       30.03R HX  82
MANITOWOC      NOT AVBL
APPLETON       NOT AVBL
CLINTONVILLE   RAIN      72  63  73 N3        30.05R
OSHKOSH        PTSUNNY   84  68  58 W6        30.01R HX  87
$$

WIZ032>034-041-042-053>061-271800-
SOUTHWEST WISCONSIN

CITY           SKY/WX    TMP DP  RH WIND       PRES   REMARKS
LA CROSSE      MOSUNNY   84  66  54 SE5       29.98F HX  86
SPARTA         PTSUNNY   83  68  60 SW3       30.00F HX  86
VIROQUA        MOSUNNY   81  65  58 S3        30.03F HX  82
BOSCOBEL       SUNNY     86  64  47 CALM      29.99F HX  87
PRAIRIE DU CHI MOSUNNY   82  65  55 E5        29.99F HX  84
PLATTEVILLE    MOSUNNY   81  70  69 SE3       30.03F HX  84
$$

WIZ056-057-062-063-064-067-068-271800-
SOUTH CENTRAL WISCONSIN

CITY           SKY/WX    TMP DP  RH WIND       PRES   REMARKS
REEDSBURG      MOSUNNY   82  71  68 W5        30.01S HX  86
BARABOO/DELLS  MOSUNNY   82  67  60 W5        30.02S HX  85
LONE ROCK      NOT AVBL
MINERAL POINT  PTSUNNY   82  68  61 CALM      30.04F HX  85
MADISON        PTSUNNY   83  68  60 SW6       30.01F HX  86
MIDDLETON      PTSUNNY   84  68  57 W6        30.03S HX  87
WATERTOWN      SUNNY     82  71  68 W6        30.01F HX  87
MONROE         PTSUNNY   82  63  51 W7        30.04F HX  83
JANESVILLE     NOT AVBL
$$

WIZ051-052-058>065-066-070>072-271800-
SOUTHEAST WISCONSIN

CITY           SKY/WX    TMP DP  RH WIND       PRES   REMARKS
MILWAUKEE      MOSUNNY   87  67  51 W7        30.01R HX  90
WAUKESHA       MOSUNNY   81  64  57 W6        30.03S HX  82
MILWAUKEE/TIMM NOT AVBL
RACINE         CLOUDY    86  66  51 VRB5      30.03R HX  88
BURLINGTON     SUNNY     84  63  48 W7        30.02S HX  85
KENOSHA        PTSUNNY   84  67  56 W6        30.02R HX  86
FOND DU LAC    PTSUNNY   84  70  62 W5        30.00F HX  88
SHEBOYGAN      PTSUNNY   84  69  60 CALM      30.00S HX  88
WEST BEND      PTSUNNY   86  68  54 W7        30.01R HX  89
JUNEAU         MOSUNNY   82  70  68 SW5       30.03S HX  85
$$

LSZ147-162-271800-
LAKE SUPERIOR

STATION/POSITION TIME  TEMP    WIND        PRES    WAVE
                       AIR SEA DIR/SP/G            HT/PER
                 (UTC) (F)     (DEG/KT/KT) (MB)    (FT/S)
W MID LAKE BUOY  1550   63 60   50/ 14/ 16 1016.7R   1/ 4
DEVILS ISLAND    1600   63      50/ 21/ 25 1016.2F
PORT WING        1600   67      40/ 16/ 20 1016.3R
SAXON HARBOR     1600   71      50/  5/  7 1015.6
$$

LMZ867-665-643>646-271800-
LAKE MICHIGAN

STATION/POSITION TIME  TEMP    WIND        PRES    WAVE
                       AIR SEA DIR/SP/G            HT/PER
                 (UTC) (F)     (DEG/KT/KT) (MB)    (FT/S)
CHAMBERS ISLAND  1600   75     180/  2/  6 1015.6R
S GREEN BAY BUOY 1500   74 75  310/  4/  4   N/A
N MID LAKE BUOY  1550   70 70  290/  8/ 10 1014.9R   1/ 4
NORTHPORT PIER   1600   75     300/  4/  8 1015.6S
SISTER BAY       1606   75     320/  6/  7   N/A
ALGOMA LAKESHORE 1613          320/ 12/ 16   N/A
KEWAUNEE LAKESHO 1600   71     210/  2/  4 1015.8R
SHEBOYGAN LAKESH 1600   72      50/  5/  6 1015.9R
PORT WASHINGTON  1600   78     180/  7/  9 1015.9F
ATWATER BUOY     1600   70 60  140/  6/  6 1017.5S
MILWAUKEE LAKESH 1610   76     160/  4/  6   N/A
S MID LAKE BUOY  1550   75 75  300/  6/  6 1015.3S   0
KENOSHA   LAKESH 1600   80     130/  6/  6 1015.6S
$$

TC  - TEMPERATURE IN CELSIUS
VSB - VISIBILITY IN STATUTE MILES
WCI - WIND CHILL INDEX
HX  - HEAT INDEX





USA.gov is the U.S. government's official web portal to all federal, state and local government web resources and services.